WX4F Weather Reports


time (UTC)temp
C
wind
direction
speed
KPH
gust
KPH
rain 1hr
cm
rain 24hr
cm
rain mn
cm
humidity
%
barometer
mb
20260510183503 27 231 1.6 4.8 0.00 0.00 0.00 33 1015.9
20260510183003 27 54 1.6 4.8 0.00 0.00 0.00 34 1015.9
20260510182503 27 90 1.6 4.8 0.00 0.00 0.00 34 1016.0
20260510182003 27 225 3.2 4.8 0.00 0.00 0.00 35 1016.1
20260510181503 27 281 1.6 3.2 0.00 0.00 0.00 34 1016.0
20260510181003 27 234 1.6 4.8 0.00 0.00 0.00 36 1016.0
20260510180004 27 150 1.6 4.8 0.00 0.00 0.00 35 1016.0
20260510175503 27 210 3.2 4.8 0.00 0.00 0.00 34 1016.1
20260510175003 27 227 1.6 4.8 0.00 0.00 0.00 34 1016.3
20260510174503 26 124 0.0 4.8 0.00 0.00 0.00 36 1016.4
20260510174004 27 128 1.6 4.8 0.00 0.00 0.00 38 1016.3
20260510173504 27 176 1.6 4.8 0.00 0.00 0.00 37 1016.3
20260510172505 26 178 0.0 3.2 0.00 0.00 0.00 37 1016.5
20260510172004 27 147 0.0 4.8 0.00 0.00 0.00 37 1016.6
20260510171004 26 83 0.0 4.8 0.00 0.00 0.00 36 1016.6
20260510170504 26 171 0.0 3.2 0.00 0.00 0.00 37 1016.6
20260510170003 26 144 1.6 4.8 0.00 0.00 0.00 35 1016.6
20260510165503 26 348 0.0 1.6 0.00 0.00 0.00 33 1016.6
20260510165004 26 348 1.6 4.8 0.00 0.00 0.00 36 1016.7
20260510164504 26 14 0.0 3.2 0.00 0.00 0.00 38 1016.7
20260510164003 26 66 0.0 1.6 0.00 0.00 0.00 37 1016.7
20260510163504 27 66 0.0 1.6 0.00 0.00 0.00 39 1016.7
20260510162504 26 66 0.0 3.2 0.00 0.00 0.00 36 1016.8
20260510162004 25 12 0.0 4.8 0.00 0.00 0.00 36 1016.9
20260510161504 26 118 0.0 3.2 0.00 0.00 0.00 40 1016.8
20260510161004 26 124 0.0 3.2 0.00 0.00 0.00 45 1016.9
20260510160004 26 117 1.6 4.8 0.00 0.00 0.00 47 1016.9
20260510155504 26 150 1.6 8.0 0.00 0.00 0.00 43 1016.9
20260510155003 26 163 0.0 3.2 0.00 0.00 0.00 44 1016.9
20260510154004 25 146 0.0 1.6 0.00 0.00 0.00 51 1017.1
20260510153504 25 146 1.6 4.8 0.00 0.00 0.00 49 1017.1
20260510153004 25 138 0.0 3.2 0.00 0.00 0.00 48 1017.2
20260510152505 25 205 0.0 1.6 0.00 0.00 0.00 53 1017.2
20260510152003 24 196 0.0 3.2 0.00 0.00 0.00 52 1017.2
20260510151504 23 184 1.6 3.2 0.00 0.00 0.00 55 1017.3
20260510151003 24 183 0.0 1.6 0.00 0.00 0.00 57 1017.3
20260510150504 23 186 0.0 1.6 0.00 0.00 0.00 60 1017.3
20260510145503 23 186 0.0 3.2 0.00 0.00 0.00 60 1017.4
20260510145005 22 178 0.0 0.0 0.00 0.00 0.00 61 1017.3
20260510144503 23 176 1.6 3.2 0.00 0.00 0.00 56 1017.3
20260510144003 23 103 0.0 1.6 0.00 0.00 0.00 61 1017.3
20260510143503 22 101 0.0 1.6 0.00 0.00 0.00 61 1017.3
20260510143004 22 103 0.0 0.0 0.00 0.00 0.00 62 1017.3
20260510142504 22 103 0.0 0.0 0.00 0.00 0.00 62 1017.4
20260510142004 22 103 0.0 0.0 0.00 0.00 0.00 62 1017.5
20260510141504 21 103 1.6 3.2 0.00 0.00 0.00 63 1017.5
20260510140504 21 103 0.0 0.0 0.00 0.00 0.00 67 1017.5
20260510140004 20 103 0.0 3.2 0.00 0.00 0.00 71 1017.5
20260510135503 21 67 0.0 0.0 0.00 0.00 0.00 72 1017.5
20260510135003 20 67 0.0 0.0 0.00 0.00 0.00 72 1017.6
20260510134003 19 67 0.0 0.0 0.00 0.00 0.00 73 1017.6
20260510133503 18 67 0.0 0.0 0.00 0.00 0.00 74 1017.6
20260510133004 18 67 0.0 0.0 0.00 0.00 0.00 79 1017.5
20260510132004 17 67 0.0 0.0 0.00 0.00 0.00 82 1017.6
20260510131504 17 67 0.0 0.0 0.00 0.00 0.00 84 1017.5
20260510131004 17 67 0.0 0.0 0.00 0.00 0.00 87 1017.5
20260510130004 15 67 0.0 0.0 0.00 0.00 0.00 94 1017.4
20260510125504 15 67 0.0 0.0 0.00 0.00 0.00 93 1017.3
20260510125005 15 67 0.0 0.0 0.00 0.00 0.00 94 1017.4
20260510124503 14 67 0.0 0.0 0.00 0.00 0.00 94 1017.3
20260510124004 13 67 0.0 0.0 0.00 0.00 0.00 95 1017.4
20260510123504 13 67 0.0 0.0 0.00 0.00 0.00 95 1017.3
20260510123004 12 67 0.0 0.0 0.00 0.00 0.00 96 1017.2
20260510122504 12 67 0.0 0.0 0.00 0.00 0.00 96 1017.2
20260510122004 12 67 0.0 0.0 0.00 0.00 0.00 96 1017.2
20260510121504 11 67 0.0 0.0 0.00 0.00 0.00 96 1017.2
20260510121004 11 67 0.0 0.0 0.00 0.00 0.00 97 1017.0
20260510120504 11 67 0.0 0.0 0.00 0.00 0.00 97 1016.9
20260510115504 10 67 0.0 0.0 0.00 0.00 0.00 96 1016.7
20260510115003 10 67 0.0 0.0 0.00 0.00 0.00 96 1016.5
20260510114504 10 67 0.0 0.0 0.00 0.00 0.00 97 1016.5
20260510114005 10 67 0.0 0.0 0.00 0.00 0.00 96 1016.3
20260510113504 10 67 0.0 0.0 0.00 0.00 0.00 96 1016.3
20260510112504 10 67 0.0 0.0 0.00 0.00 0.00 96 1015.9
20260510112003 10 67 0.0 0.0 0.00 0.00 0.00 96 1015.9
20260510111503 9 67 0.0 0.0 0.00 0.00 0.00 96 1015.8
20260510110004 9 67 0.0 0.0 0.00 0.00 0.00 96 1015.6
20260510105504 9 67 0.0 0.0 0.00 0.00 0.00 96 1015.6
20260510105004 9 67 0.0 0.0 0.00 0.00 0.00 96 1015.6
20260510104504 9 67 0.0 0.0 0.00 0.00 0.00 96 1015.6
20260510104004 9 67 0.0 0.0 0.00 0.00 0.00 96 1015.4
20260510102503 10 67 0.0 0.0 0.00 0.00 0.00 96 1015.1
20260510102004 10 67 0.0 0.0 0.00 0.00 0.00 96 1015.1
20260510101504 10 67 0.0 0.0 0.00 0.00 0.00 96 1015.0
20260510101004 10 67 0.0 0.0 0.00 0.00 0.00 96 1015.0
20260510100503 10 67 0.0 0.0 0.00 0.00 0.00 96 1015.0
20260510095504 10 67 0.0 0.0 0.00 0.00 0.00 96 1014.9
20260510094504 10 67 0.0 0.0 0.00 0.00 0.00 96 1014.7
20260510094004 10 67 0.0 0.0 0.00 0.00 0.00 96 1014.7
20260510093503 10 67 0.0 0.0 0.00 0.00 0.00 96 1014.7
20260510093004 10 67 0.0 0.0 0.00 0.00 0.00 96 1014.6
20260510092504 10 67 0.0 0.0 0.00 0.00 0.00 96 1014.6
20260510092004 10 67 0.0 0.0 0.00 0.00 0.00 96 1014.6
20260510091504 10 67 0.0 0.0 0.00 0.00 0.00 96 1014.6
20260510091004 11 67 0.0 0.0 0.00 0.00 0.00 96 1014.5
20260510090005 11 67 0.0 0.0 0.00 0.00 0.00 95 1014.5
20260510085504 11 67 0.0 0.0 0.00 0.00 0.00 95 1014.4
20260510084504 11 67 0.0 0.0 0.00 0.00 0.00 96 1014.3
20260510084003 11 67 0.0 0.0 0.00 0.00 0.00 95 1014.2
20260510083503 11 67 0.0 0.0 0.00 0.00 0.00 96 1014.2
20260510083004 11 67 0.0 0.0 0.00 0.00 0.00 95 1014.1
20260510082505 11 67 0.0 0.0 0.00 0.00 0.00 95 1013.9
20260510082004 11 67 0.0 0.0 0.00 0.00 0.00 95 1013.9
20260510081504 11 67 0.0 0.0 0.00 0.00 0.00 96 1013.8
20260510081005 12 67 0.0 0.0 0.00 0.00 0.00 95 1013.8
20260510080504 12 67 0.0 0.0 0.00 0.00 0.00 95 1013.7
20260510080004 12 67 0.0 0.0 0.00 0.00 0.00 95 1013.7
20260510075504 12 67 0.0 0.0 0.00 0.00 0.00 96 1013.7
20260510074504 12 67 0.0 0.0 0.00 0.00 0.00 95 1013.6
20260510074004 12 67 0.0 0.0 0.00 0.00 0.00 95 1013.6
20260510073504 12 67 0.0 0.0 0.00 0.00 0.00 95 1013.6
20260510072504 12 67 0.0 0.0 0.00 0.00 0.00 95 1013.7
20260510072004 12 67 0.0 0.0 0.00 0.00 0.00 95 1013.6
20260510071504 12 67 0.0 0.0 0.00 0.00 0.00 95 1013.4
20260510071004 12 67 0.0 0.0 0.00 0.00 0.00 95 1013.4
20260510070504 12 67 0.0 0.0 0.00 0.00 0.00 95 1013.4
20260510070004 12 67 0.0 0.0 0.00 0.00 0.00 95 1013.5
20260510065504 13 67 0.0 0.0 0.00 0.00 0.00 95 1013.5
20260510065004 13 67 0.0 0.0 0.00 0.00 0.00 95 1013.5
20260510064504 13 67 0.0 0.0 0.00 0.00 0.00 95 1013.6
20260510063504 13 67 0.0 0.0 0.00 0.00 0.00 95 1013.3
20260510063004 13 67 0.0 0.0 0.00 0.00 0.00 95 1013.2
20260510062504 13 67 0.0 0.0 0.00 0.00 0.00 95 1013.3
20260510062003 13 67 0.0 0.0 0.00 0.00 0.00 95 1013.4
20260510061004 13 67 0.0 0.0 0.00 0.00 0.00 95 1013.5
20260510060004 13 67 0.0 0.0 0.00 0.00 0.00 95 1013.5
20260510055503 13 67 0.0 0.0 0.00 0.00 0.00 94 1013.5
20260510055003 13 67 0.0 0.0 0.00 0.00 0.00 94 1013.5
20260510054504 14 67 0.0 0.0 0.00 0.00 0.00 94 1013.5
20260510054003 14 67 0.0 0.0 0.00 0.00 0.00 94 1013.6
20260510053004 14 67 0.0 0.0 0.00 0.00 0.00 94 1013.6
20260510052504 14 67 0.0 0.0 0.00 0.00 0.00 94 1013.7
20260510052004 14 67 0.0 0.0 0.00 0.00 0.00 94 1013.8
20260510051504 14 67 0.0 0.0 0.00 0.00 0.00 94 1013.8
20260510050504 15 67 0.0 0.0 0.00 0.00 0.00 93 1013.8
20260510045503 15 67 0.0 0.0 0.00 0.00 0.00 93 1013.7
20260510044504 15 67 0.0 0.0 0.00 0.00 0.00 92 1013.8
20260510044004 15 67 0.0 0.0 0.00 0.00 0.00 92 1013.7
20260510043503 16 67 0.0 0.0 0.00 0.00 0.00 92 1013.8
20260510043004 16 67 0.0 0.0 0.00 0.00 0.00 91 1013.9
20260510042504 16 67 0.0 0.0 0.00 0.00 0.00 91 1013.8
20260510042003 16 67 0.0 0.0 0.00 0.00 0.00 91 1013.8
20260510041504 16 67 0.0 0.0 0.00 0.00 0.00 90 1013.8
20260510041004 16 67 0.0 0.0 0.00 0.00 0.00 90 1013.7
20260510040504 16 67 0.0 0.0 0.00 0.00 0.00 90 1013.7
20260510040004 16 67 0.0 0.0 0.00 0.00 0.00 89 1013.7
20260510035504 17 67 0.0 0.0 0.00 0.00 0.00 89 1013.8
20260510034504 17 67 0.0 0.0 0.00 0.00 0.00 88 1013.8
20260510034004 17 67 0.0 0.0 0.00 0.00 0.00 89 1013.8
20260510033503 17 67 0.0 0.0 0.00 0.00 0.00 88 1013.7
20260510033004 17 67 0.0 0.0 0.00 0.00 0.00 88 1013.8
20260510032504 17 67 0.0 0.0 0.00 0.00 0.00 87 1013.9
20260510032004 17 67 0.0 0.0 0.00 0.00 0.00 87 1014.0
20260510031504 17 67 0.0 0.0 0.00 0.00 0.00 87 1013.9
20260510031004 17 67 0.0 0.0 0.00 0.00 0.00 87 1013.9
20260510030004 17 67 0.0 0.0 0.00 0.00 0.00 86 1013.9
20260510025503 17 67 0.0 0.0 0.00 0.00 0.00 85 1013.8
20260510025004 18 67 0.0 0.0 0.00 0.00 0.00 85 1013.7
20260510024504 18 67 0.0 0.0 0.00 0.00 0.00 85 1013.7
20260510023504 18 67 0.0 0.0 0.00 0.00 0.00 84 1013.6
20260510023004 18 67 0.0 0.0 0.00 0.00 0.00 84 1013.5
20260510022504 18 67 0.0 0.0 0.00 0.00 0.00 83 1013.4
20260510022004 18 67 0.0 0.0 0.00 0.00 0.00 82 1013.3
20260510021503 18 67 0.0 0.0 0.00 0.00 0.00 81 1013.3
20260510021004 19 67 0.0 0.0 0.00 0.00 0.00 81 1013.1
20260510020504 19 67 0.0 0.0 0.00 0.00 0.00 81 1013.0
20260510020004 19 61 0.0 1.6 0.00 0.00 0.00 80 1013.0
20260510015504 19 163 0.0 3.2 0.00 0.00 0.00 80 1013.0
20260510015003 19 65 0.0 0.0 0.00 0.00 0.00 80 1012.9
20260510014004 19 200 0.0 1.6 0.00 0.00 0.00 80 1012.8
20260510013503 19 200 0.0 0.0 0.00 0.00 0.00 80 1012.7
20260510013004 19 267 0.0 0.0 0.00 0.00 0.00 81 1012.6
20260510012503 18 267 0.0 0.0 0.00 0.00 0.00 82 1012.6
20260510012003 18 267 0.0 0.0 0.00 0.00 0.00 83 1012.4
20260510011504 18 267 0.0 3.2 0.00 0.00 0.00 83 1012.4
20260510011003 18 262 0.0 0.0 0.00 0.00 0.00 83 1012.4
20260510010504 18 262 0.0 0.0 0.00 0.00 0.00 83 1012.1
20260510010004 18 262 0.0 0.0 0.00 0.00 0.00 83 1012.0
20260510005004 18 262 0.0 0.0 0.00 0.00 0.00 81 1012.0
20260510004503 19 262 0.0 0.0 0.00 0.00 0.00 80 1011.9
20260510004003 19 262 0.0 0.0 0.00 0.00 0.00 79 1011.7
20260510003004 20 270 0.0 1.6 0.00 0.00 0.00 78 1011.5
20260510002503 20 270 0.0 0.0 0.00 0.00 0.00 78 1011.5
20260510001004 20 270 0.0 0.0 0.00 0.00 0.00 74 1011.6
20260510000503 20 270 0.0 0.0 0.00 0.00 0.00 74 1011.6
20260510000004 21 270 0.0 0.0 0.00 0.00 0.00 73 1011.4
20260509235504 21 270 0.0 0.0 0.00 0.00 0.00 72 1011.4
20260509235004 21 270 0.0 1.6 0.00 0.00 0.00 72 1011.4
20260509234504 21 259 0.0 0.0 0.00 0.00 0.00 72 1011.4
20260509234004 21 259 0.0 1.6 0.00 0.00 0.00 71 1011.3
20260509233504 21 213 0.0 0.0 0.00 0.00 0.00 70 1011.2
20260509233004 21 209 0.0 0.0 0.00 0.00 0.00 69 1011.2
20260509232505 22 211 0.0 3.2 0.00 0.00 0.00 69 1011.1
20260509232003 22 194 0.0 3.2 0.00 0.00 0.00 70 1010.9
20260509231504 22 182 0.0 1.6 0.00 0.00 0.00 68 1010.9
20260509231004 21 179 0.0 1.6 0.00 0.00 0.00 69 1010.8
20260509230504 21 180 0.0 1.6 0.00 0.00 0.00 68 1011.0
20260509230003 21 168 0.0 1.6 0.00 0.00 0.00 69 1010.7
20260509225504 22 146 0.0 0.0 0.00 0.00 0.00 68 1010.6
20260509225003 22 175 0.0 1.6 0.00 0.00 0.00 68 1010.5
20260509224004 22 163 0.0 1.6 0.00 0.00 0.00 67 1010.5
20260509223503 22 162 0.0 1.6 0.00 0.00 0.00 66 1010.4
20260509222503 22 96 0.0 0.0 0.00 0.00 0.00 64 1010.6
20260509222004 22 96 0.0 1.6 0.00 0.00 0.00 63 1010.5
20260509221504 22 93 0.0 0.0 0.00 0.00 0.00 64 1010.4
20260509221004 22 93 0.0 1.6 0.00 0.00 0.00 65 1010.5
20260509220504 22 93 0.0 3.2 0.00 0.00 0.00 64 1010.5
20260509220004 22 178 0.0 1.6 0.00 0.00 0.00 64 1010.3
20260509214504 23 151 0.0 1.6 0.00 0.00 0.00 64 1010.5
20260509214003 23 143 0.0 3.2 0.00 0.00 0.00 63 1010.4
20260509213504 23 209 0.0 3.2 0.00 0.00 0.00 62 1010.3
20260509213004 22 247 0.0 1.6 0.00 0.00 0.00 65 1010.2
20260509211503 22 145 0.0 3.2 0.00 0.00 0.00 64 1010.5
20260509211004 22 273 0.0 0.0 0.00 0.00 0.00 66 1010.4
20260509210503 22 274 0.0 1.6 0.00 0.00 0.00 65 1010.3
20260509210004 22 63 0.0 1.6 0.00 0.00 0.00 65 1010.2
20260509205503 22 322 0.0 1.6 0.00 0.00 0.00 65 1010.1
20260509205004 22 338 0.0 1.6 0.00 0.00 0.00 63 1010.1
20260509204503 22 283 0.0 1.6 0.00 0.00 0.00 63 1010.0
20260509204003 23 162 0.0 1.6 0.00 0.00 0.00 61 1010.1
20260509203504 23 245 1.6 4.8 0.00 0.00 0.00 61 1010.2
20260509203004 22 247 0.0 4.8 0.00 0.00 0.00 61 1010.3
20260509202503 23 220 1.6 9.7 0.00 0.00 0.00 61 1010.3
20260509202004 23 217 0.0 1.6 0.00 0.00 0.00 60 1010.3
20260509201504 23 183 0.0 1.6 0.00 0.00 0.00 59 1010.3
20260509201003 23 265 0.0 1.6 0.00 0.00 0.00 60 1010.3
20260509200504 23 298 1.6 4.8 0.00 0.00 0.00 59 1010.3
20260509200004 23 288 1.6 4.8 0.00 0.00 0.00 60 1010.4
20260509195504 23 239 1.6 4.8 0.00 0.00 0.00 58 1010.4
20260509195004 22 250 0.0 4.8 0.00 0.00 0.00 57 1010.4
20260509194504 22 193 0.0 3.2 0.00 0.00 0.00 57 1010.5
20260509194004 22 140 1.6 3.2 0.00 0.00 0.00 59 1010.7
20260509193503 23 91 3.2 14.5 0.00 0.00 0.00 58 1010.8
20260509193005 22 189 1.6 4.8 0.00 0.00 0.00 60 1010.9
20260509192504 22 209 3.2 9.7 0.00 0.00 0.00 58 1010.8
20260509192003 22 252 1.6 9.7 0.00 0.00 0.00 58 1010.8
20260509191504 23 161 1.6 4.8 0.00 0.00 0.00 56 1010.9
20260509191004 22 228 1.6 4.8 0.00 0.00 0.00 60 1010.9
20260509190505 23 151 1.6 4.8 0.00 0.00 0.00 59 1010.8